This demonstration page uses our WeatherBlox Daily Observations layout. Learn more.

Left ArrowRight Arrow

Hourly Observations for June 20, 2018

Temp ( °F °C ) Dew Point ( °F °C ) Humidity (%) Winds ( mph kmh ) Pressure ( in mb ) Visibility ( mi km ) Precip ( " mm )
12:53 am 00:53 Clear 54 12.2 54 12.2 100 100 SSE 3 6 30.12 1020 10 16 0.00 0.00
1:53 am 01:53 Partly Cloudy 53 11.7 52 11.1 96 96 WNW 3 6 30.12 1020 10 16 0.00 0.00
2:53 am 02:53 Clear 53 11.7 52 11.1 96 96 S 3 6 30.12 1020 10 16 0.00 0.00
3:53 am 03:53 Clear 51 10.6 50 10 96 96 Calm 30.13 1020 10 16 0.00 0.00
4:48 am 04:48 Clear with Mist and Fog 52 11 52 11 100 100 Calm 30.12 1020 2 3 0.00 0.00
4:53 am 04:53 Clear with Mist and Fog 49 9.4 49 9.4 100 100 S 3 6 30.14 1021 1 2 0.00 0.00
4:59 am 04:59 Clear with Mist and Fog 49 9.4 49 9.4 100 100 S 3 6 30.15 1021 3 4 0.00 0.00
5:06 am 05:06 Clear 50 10 50 10 100 100 S 6 9 30.15 1021 10 16 0.00 0.00
5:53 am 05:53 Sunny 50 10 49 9.4 96 96 SSW 5 7 30.14 1021 10 16 0.00 0.00
6:40 am 06:40 Partly Cloudy with Mist and Fog 52 11 50 10 94 94 Calm 30.12 1020 5 8 0.00 0.00
6:53 am 06:53 Sunny 52 11.1 51 10.6 97 97 W 3 6 30.14 1021 10 16 0.00 0.00
7:53 am 07:53 Sunny 58 14.4 55 12.8 90 90 WSW 3 6 30.14 1021 10 16 0.00 0.00
8:53 am 08:53 Sunny 62 16.7 57 13.9 84 84 SSW 3 6 30.14 1021 10 16 0.00 0.00
9:53 am 09:53 Sunny 66 18.9 56 13.3 70 70 WSW 9 15 30.12 1020 10 16 0.00 0.00
10:53 am 10:53 Partly Cloudy 69 20.6 57 13.9 66 66 VRB 7 11 30.11 1020 10 16 0.00 0.00
11:42 am 11:42 Mostly Cloudy 70 21 57 14 64 64 SSW 6 9 30.00 1016 10 16 0.00 0.00
11:53 am 11:53 Mostly Cloudy 70 21.1 57 13.9 64 64 W 9 15 30.10 1019 10 16 0.00 0.00
12:05 pm 12:05 Partly Cloudy 71 21.7 57 13.9 61 61 WSW 5 7 30.00 1016 10 16 0.00 0.00
12:53 pm 12:53 Partly Cloudy 74 23.3 57 13.9 56 56 VRB 6 9 30.09 1019 10 16 0.00 0.00
1:53 pm 13:53 Mostly Sunny 76 24.4 55 12.8 48 48 undefined N/A 30.08 1019 10 16 0.00 0.00
2:53 pm 14:53 Mostly Sunny 74 23.3 54 12.2 50 50 W 5 7 30.07 1018 10 16 0.00 0.00
3:53 pm 15:53 Mostly Cloudy 75 23.9 52 11.1 45 45 VRB 5 7 30.06 1018 10 16 0.00 0.00
4:53 pm 16:53 Mostly Sunny 78 25.6 51 10.6 39 39 SSW 8 13 30.04 1017 10 16 0.00 0.00
5:53 pm 17:53 Cloudy 73 22.8 55 12.8 53 53 E 8 13 30.04 1017 10 16 0.00 0.00
6:53 pm 18:53 Mostly Cloudy 75 23.9 54 12.2 48 48 E 9 15 30.01 1016 10 16 0.00 0.00
7:53 pm 19:53 Partly Cloudy 73 22.8 55 12.8 53 53 ESE 7 11 30.00 1016 10 16 0.00 0.00
8:53 pm 20:53 Mostly Cloudy 70 21.1 57 13.9 64 64 ESE 8 13 29.99 1016 10 16 0.00 0.00
9:53 pm 21:53 Clear 66 18.9 57 13.9 73 73 ESE 7 11 29.99 1016 10 16 0.00 0.00
10:53 pm 22:53 Clear 62 16.7 56 13.3 80 80 E 5 7 29.98 1015 10 16 0.00 0.00
11:53 pm 23:53 Clear 62 16.7 54 12.2 75 75 Calm 29.96 1015 10 16 0.00 0.00

Powered by AerisWeather